Weather History for Idabel, OK

Change the Weather History Date:

Friday, December 14, 2012

  Actual Average (KDEQ) Record (KDEQ)
Temperature  
Mean Temperature 44 °F 43 °F  
Max Temperature 55 °F 55 °F 74 °F (1995)
Min Temperature 33 °F 30 °F 14 °F (1989)
Degree Days  
Heating Degree Days 21 22  
Month to date heating degree days 293  
Since 1 July heating degree days 819  
Cooling Degree Days 0 0  
Month to date cooling degree days 0  
Year to date cooling degree days 1941  
Moisture  
Dew Point 31 °F    
Average Humidity 60    
Maximum Humidity 82    
Minimum Humidity 36    
Precipitation  
Precipitation 0.05 in 0.12 in 1.50 in (1948)
Month to date precipitation 1.72  
Year to date precipitation 46.35  
Snow  
Snow 0.00 in - - ()
Month to date snowfall  
Since 1 July snowfall  
Snow Depth -    
Sea Level Pressure  
Sea Level Pressure 30.10 in    
Wind  
Wind Speed 7 mph (East)    
Max Wind Speed 13 mph    
Max Gust Speed 16 mph    
Visibility 10 miles    
Events      
T = Trace of Precipitation, MM = Missing Value Source: NWS Daily Summary

Daily Weather History Graph

Daily Weather History Graph

Search for Another Location

Airport:

Trip Planner

Search our weather history database for the weather conditions in past years. The results will help you decide how hot, cold, wet, or windy it might be!

Date:

Astronomy

Dec. 14, 2012 Rise Set
Actual Time 7:16 AM CST 5:11 PM CST
Civil Twilight 6:49 AM CST 5:39 PM CST
Nautical Twilight 6:18 AM CST 6:10 PM CST
Astronomical Twilight 5:47 AM CST 6:41 PM CST
Moon 8:24 AM CST (12/14) 7:02 PM CST (12/14)
Length of Visible Light 10h 50m
Length of Day
9h 54m
Waxing Crescent, 3% of the Moon is Illuminated
Dec 14
Waxing Crescent
Dec 19
First Quarter
Dec 28
Full
Jan 4
Last Quarter
Jan 11
New

Hourly Weather History & Observations

Time (CST) Temp. Windchill Dew Point Humidity Pressure Visibility Wind Dir Wind Speed Gust Speed Precip Events Conditions
12:15 AM 37.4 °F 31.4 °F 21.2 °F 52% 30.24 in 10.0 mi East 8.1 mph - N/A   Clear
12:35 AM 37.4 °F 30.8 °F 21.2 °F 52% 30.23 in 10.0 mi East 9.2 mph - N/A   Clear
12:55 AM 35.6 °F 30.7 °F 21.2 °F 56% 30.24 in 10.0 mi East 5.8 mph - N/A   Clear
1:15 AM 35.6 °F 29.9 °F 21.2 °F 56% 30.23 in 10.0 mi East 6.9 mph - N/A   Clear
1:35 AM 35.6 °F 29.9 °F 21.2 °F 56% 30.23 in 10.0 mi East 6.9 mph - N/A   Clear
1:55 AM 35.6 °F 32.8 °F 21.2 °F 56% 30.23 in 10.0 mi ENE 3.5 mph - N/A   Clear
2:15 AM 33.8 °F 30.8 °F 21.2 °F 60% 30.23 in 10.0 mi East 3.5 mph - N/A   Clear
2:55 AM 33.8 °F 28.6 °F 23.0 °F 65% 30.24 in 10.0 mi ENE 5.8 mph - N/A   Clear
3:15 AM 33.8 °F 28.6 °F 23.0 °F 65% 30.22 in 10.0 mi ENE 5.8 mph - N/A   Clear
3:55 AM 33.8 °F 29.6 °F 23.0 °F 65% 30.23 in 10.0 mi East 4.6 mph - N/A   Clear
4:15 AM 33.8 °F 29.6 °F 23.0 °F 65% 30.22 in 10.0 mi East 4.6 mph - N/A   Clear
4:35 AM 35.6 °F 29.2 °F 23.0 °F 60% 30.21 in 10.0 mi East 8.1 mph - N/A   Clear
4:55 AM 35.6 °F 30.7 °F 24.8 °F 65% 30.21 in 10.0 mi East 5.8 mph - N/A   Scattered Clouds
5:15 AM 35.6 °F 31.7 °F 24.8 °F 65% 30.20 in 10.0 mi East 4.6 mph - N/A   Scattered Clouds
5:35 AM 35.6 °F 31.7 °F 24.8 °F 65% 30.21 in 10.0 mi East 4.6 mph - N/A   Clear
5:55 AM 35.6 °F 32.8 °F 23.0 °F 60% 30.21 in 10.0 mi East 3.5 mph - N/A   Clear
6:15 AM 33.8 °F - 23.0 °F 65% 30.22 in 10.0 mi Calm Calm - N/A   Clear
6:35 AM 33.8 °F 27.7 °F 26.6 °F 75% 30.22 in 10.0 mi East 6.9 mph - N/A   Clear
6:55 AM 33.8 °F 27.7 °F 24.8 °F 70% 30.21 in 10.0 mi East 6.9 mph - N/A   Clear
7:15 AM 33.8 °F 29.6 °F 24.8 °F 70% 30.22 in 10.0 mi East 4.6 mph - N/A   Clear
7:35 AM 33.8 °F 27.7 °F 24.8 °F 70% 30.22 in 10.0 mi East 6.9 mph - N/A   Clear
7:55 AM 35.6 °F 28.0 °F 26.6 °F 70% 30.21 in 10.0 mi East 10.4 mph - N/A   Scattered Clouds
8:15 AM 35.6 °F 28.6 °F 26.6 °F 70% 30.21 in 10.0 mi East 9.2 mph - N/A   Clear
8:55 AM 39.2 °F 34.2 °F 26.6 °F 61% 30.21 in 10.0 mi East 6.9 mph - N/A   Clear
9:15 AM 41.0 °F 36.4 °F 28.4 °F 61% 30.21 in 10.0 mi East 6.9 mph - N/A   Clear
9:35 AM 42.8 °F 39.3 °F 28.4 °F 57% 30.22 in 10.0 mi ESE 5.8 mph - N/A   Mostly Cloudy
9:55 AM 44.6 °F 41.4 °F 28.4 °F 53% 30.20 in 10.0 mi ESE 5.8 mph - N/A   Scattered Clouds
10:15 AM 46.4 °F 42.9 °F 28.4 °F 50% 30.21 in 10.0 mi ESE 6.9 mph - N/A   Clear
10:55 AM 50.0 °F - 28.4 °F 43% 30.21 in 10.0 mi East 4.6 mph - N/A   Mostly Cloudy
11:15 AM 50.0 °F - 28.4 °F 43% 30.20 in 10.0 mi East 5.8 mph - N/A   Mostly Cloudy
11:35 AM 50.0 °F - 28.4 °F 43% 30.19 in 10.0 mi ESE 4.6 mph - N/A   Mostly Cloudy
11:55 AM 50.0 °F - 28.4 °F 43% 30.18 in 10.0 mi SE 6.9 mph - N/A   Overcast
12:15 PM 51.8 °F - 28.4 °F 41% 30.16 in 10.0 mi ESE 8.1 mph - N/A   Mostly Cloudy
12:35 PM 51.8 °F - 28.4 °F 41% 30.13 in 10.0 mi ESE 11.5 mph - N/A   Mostly Cloudy
12:55 PM 51.8 °F - 30.2 °F 44% 30.10 in 10.0 mi East 9.2 mph - N/A   Overcast
1:15 PM 51.8 °F - 30.2 °F 44% 30.10 in 10.0 mi East 6.9 mph - N/A   Overcast
1:35 PM 53.6 °F - 28.4 °F 38% 30.07 in 10.0 mi ESE 10.4 mph - N/A   Overcast
1:55 PM 55.4 °F - 28.4 °F 36% 30.05 in 10.0 mi ESE 12.7 mph - N/A   Overcast
2:15 PM 55.4 °F - 28.4 °F 36% 30.05 in 10.0 mi SE 10.4 mph - N/A   Overcast
2:35 PM 55.4 °F - 28.4 °F 36% 30.05 in 10.0 mi SE 10.4 mph - N/A   Overcast
2:55 PM 53.6 °F - 28.4 °F 38% 30.04 in 10.0 mi ESE 10.4 mph - N/A   Overcast
3:15 PM 53.6 °F - 28.4 °F 38% 30.03 in 10.0 mi ESE 9.2 mph - N/A   Overcast
3:35 PM 53.6 °F - 28.4 °F 38% 30.04 in 10.0 mi SE 9.2 mph - N/A   Overcast
3:55 PM 53.6 °F - 28.4 °F 38% 30.04 in 10.0 mi SE 6.9 mph - N/A   Overcast
4:15 PM 51.8 °F - 33.8 °F 50% 30.05 in 10.0 mi SE 4.6 mph - 0.01 in   Overcast
4:35 PM 50.0 °F - 37.4 °F 62% 30.04 in 7.0 mi East 8.1 mph - 0.04 in   Overcast
4:55 PM 46.4 °F 41.5 °F 37.4 °F 71% 30.00 in 10.0 mi East 10.4 mph - 0.04 in   Mostly Cloudy
5:15 PM 46.4 °F 41.5 °F 39.2 °F 76% 30.00 in 10.0 mi East 10.4 mph - N/A   Mostly Cloudy
5:35 PM 46.4 °F 41.1 °F 37.4 °F 71% 29.99 in 10.0 mi ESE 11.5 mph - N/A   Scattered Clouds
5:55 PM 48.2 °F - 37.4 °F 66% 29.99 in 10.0 mi ESE 10.4 mph - N/A   Mostly Cloudy
6:35 PM 48.2 °F - 39.2 °F 71% 30.00 in 10.0 mi East 8.1 mph - N/A   Overcast
6:55 PM 48.2 °F - 39.2 °F 71% 29.99 in 10.0 mi East 10.4 mph 16.1 mph N/A   Overcast
7:15 PM 48.2 °F - 39.2 °F 71% 29.98 in 10.0 mi East 11.5 mph - N/A   Mostly Cloudy
7:35 PM 46.4 °F 41.1 °F 39.2 °F 76% 29.97 in 10.0 mi East 11.5 mph - N/A   Overcast
7:55 PM 48.2 °F - 39.2 °F 71% 29.97 in 10.0 mi ESE 11.5 mph - N/A   Overcast
8:15 PM 50.0 °F - 39.2 °F 66% 29.96 in 10.0 mi ESE 12.7 mph - N/A   Overcast
8:35 PM 50.0 °F - 39.2 °F 66% 29.95 in 10.0 mi SE 11.5 mph - N/A   Overcast
8:55 PM 50.0 °F - 39.2 °F 66% 29.95 in 10.0 mi ESE 10.4 mph - N/A   Overcast
9:15 PM 50.0 °F - 41.0 °F 71% 29.95 in 10.0 mi SE 11.5 mph 16.1 mph N/A   Overcast
9:35 PM 51.8 °F - 41.0 °F 67% 29.95 in 10.0 mi ESE 6.9 mph - N/A   Overcast
9:55 PM 50.0 °F - 42.8 °F 76% 29.94 in 7.0 mi SE 8.1 mph - N/A   Overcast
10:15 PM 50.0 °F - 42.8 °F 76% 29.93 in 7.0 mi SE 8.1 mph - 0.01 in   Overcast
10:35 PM 50.0 °F - 44.6 °F 82% 29.92 in 10.0 mi SE 8.1 mph - 0.01 in   Overcast
10:55 PM 50.0 °F - 44.6 °F 82% 29.92 in 10.0 mi ESE 6.9 mph - 0.01 in   Overcast
11:15 PM 50.0 °F - 44.6 °F 82% 29.91 in 10.0 mi East 5.8 mph - N/A   Overcast
11:35 PM 50.0 °F - 44.6 °F 82% 29.91 in 10.0 mi NE 4.6 mph - N/A   Overcast
11:55 PM 50.0 °F - 44.6 °F 82% 29.91 in 10.0 mi ENE 4.6 mph - N/A   Overcast